Flag for Germany Weather past 2 weeks in Viersen, North Rhine-Westphalia, Germany

Now
63 °F

Scattered clouds.


Feels Like: 63 °F
Forecast: 47 / 69 °F
Wind: 8 mph from West

Location: Monchengladbach Airport

Current Time: Jul 30, 2015 at 1:02:03 PM

Latest Report: Jul 30, 2015 at 12:20 PM


Visibility: N/A

Pressure: 29.98 "Hg

Humidity: 59%

Dew point: 48 °F

Location of ViersenLocation

Historic Weather in Viersen — Graph

°F

Viersen temperature yesterday

Maximum temperature yesterday: 66 °F (at 5:50 PM)
Minimum temperature yesterday: 55 °F (at 7:50 AM)
Average temperature yesterday: 61 °F

Past Weeks' High & Low Weather Summary

 TemperatureHumidityPressure
High90 °F (Jul 17, 4:50 PM)100% (Jul 16, 7:50 AM)30.12 "Hg (Jul 16, 7:50 AM)
Low55 °F (Jul 26, 7:50 AM)29% (Jul 17, 4:50 PM)29.50 "Hg (Jul 25, 7:50 AM)
Average69 °F67%29.88 "Hg
* Reported Jul 15 11:20 AM — Jul 30 11:50 AM, Viersen, Weather by CustomWeather, © 2015

Note: Actual official high and low records may vary slightly from our data, if they occured in-between our weather recording intervals... More about our weather records

Advertising

Viersen weather history for previous 24 hours

 ConditionsComfort  
Time TempWeatherWind HumidityBarometerVisibility
11:50 AM
Thu, Jul 30
63 °FScattered clouds.7 mph64%29.98 "HgN/A
11:20 AM61 °FScattered clouds.6 mph68%29.98 "HgN/A
10:20 AM59 °FPartly sunny.8 mph77%29.98 "HgN/A
9:50 AM59 °FPartly sunny.5 mph77%29.98 "HgN/A
9:20 AM59 °FPassing clouds.7 mph77%29.98 "HgN/A
8:50 AM57 °FPassing clouds.5 mph82%29.95 "HgN/A
8:20 AM57 °FSunny.3 mph82%29.95 "Hg10 mi
7:50 AM55 °FSunny.3 mph82%29.95 "Hg10 mi
7:50 PM
Wed, Jul 29
59 °FPassing clouds.17 mph68%29.86 "HgN/A
7:20 PM63 °FPassing clouds.12 mph52%29.83 "HgN/A
6:50 PM64 °FPassing clouds.16 mph49%29.83 "HgN/A
6:20 PM64 °FPassing clouds.16 mph49%29.83 "HgN/A
5:50 PM66 °FPassing clouds.17 mph46%29.80 "HgN/A
5:20 PM64 °FPassing clouds.18 mph46%29.80 "HgN/A
4:50 PM64 °FPassing clouds.16 mph49%29.80 "HgN/A
4:20 PM64 °FScattered showers. Passing clouds.13 mph60%29.80 "HgN/A
3:50 PM63 °FScattered showers. Passing clouds.13 mph59%29.80 "HgN/A
3:20 PM64 °FScattered showers. Passing clouds.7 mph60%29.77 "HgN/A
2:50 PM57 °FScattered showers. Passing clouds.8 mph82%29.80 "HgN/A
2:20 PM57 °FScattered showers. Passing clouds.16 mph67%29.80 "HgN/A
1:50 PM61 °FScattered showers. Passing clouds.17 mph55%29.80 "HgN/A
1:20 PM59 °FScattered showers. Scattered clouds.17 mph68%29.77 "HgN/A
Weather by CustomWeather, © 2015

See weather overviewHow to use our weather pages